Track SNAP-3 ALICE now! 10-day predictions SNAP-3 ALICE is classified as:
1 40970U 15058G 26024.57127408 .00062997 00000-0 16163-2 0 9999 2 40970 64.7568 231.4457 0040273 99.5056 261.0634 15.38123042 94659